sat.trackr.live / text

‹ back to catalog

STARLINK-36241

NORAD 68154 · 2026-049N

PAYLOAD ACTIVE UNKNOWN

§ Identity

Operator
Country
US
Launch date
2026-03-13
Launch site
AFWTR
Launch vehicle
Mass (kg)
RCS (m²)

Purposes: comms

External: N2YO · Heavens-Above · Gunter

§ Orbital elements

Epoch: 2026-09-20T00:32:07.889856Z

Period
93.91 min
Inclination
97.2840°
Eccentricity
0.0001667
Mean motion
15.33454466 rev/d
Perigee alt
464.4 km
Apogee alt
466.7 km
Semi-major
6,843.7 km
B*
3.8277e-4
RAAN
282.9209°
Arg perigee
97.3556°
Mean anomaly
262.7876°
Rev number
2,942

§ Raw data

STARLINK-362411 68154U 26049N   26263.02231354  .00012306  00000+0  38277-3 0  99952 68154  97.2840 282.9209 0001667  97.3556 262.7876 15.33454466 29429

JSON: /api/v1/satellites/68154 · /tle

For live sub-satellite position, see the globe view (requires WebGL).

§ Visibility from observer

Set your observer location to see the next 7 days of passes ≥ 10°. The values pass through the URL so the page stays shareable.

No JS? Fill the form by hand. The geolocation button needs JavaScript.